Location: Chilton Park
(37.7711°N, 100.0276°W)
Time: 17:18:44
(UTC+00:00)

Cosmos 2227 Rocket - Pass Details

Date: 07 July 2022
Orbit: 840 x 844 km, 71.0° (Epoch: 18 August)

Event Time Altitude Azimuth Distance (km) Brightness Sun altitude
Exits shadow 09:26:32 25° 258° (WSW) 1,648 3.3 -18.7°
Maximum altitude 09:28:49 34° 300° (WNW) 1,368 3.2 -18.4°
Drops below altitude 10° 09:33:56 10° 4° (N) 2,469 5.4 -17.8°
Sets 09:36:37 0° 14° (NNE) 3,408 6.5 -17.4°
